Regional Weather Roundup
Issued by NWS Bismarck, ND

Home | Current Version | Previous Version | Text Only | Print | Product List | Glossary On
Versions: 1 2 3 4 5 6 7 8 9 10 11 12 13 14 15 16 17 18 19 20 21 22 23 24 25 26 27 28 29 30 31 32 33 34 35 36 37 38 39 40 41 42 43 44 45 46 47 48 49 50
000
ASUS43 KBIS 250602
RWRBIS

NWR BROADCAST TEXT
NATIONAL WEATHER SERVICE BISMARCK ND
100 AM CDT THU MAY 25 2017

NOTE: "FAIR" INDICATES FEW OR NO CLOUDS BELOW 12,000 FEET WITH NO
SIGNIFICANT WEATHER AND/OR OBSTRUCTIONS TO VISIBILITY.


CITY           SKY/WX    TMP DP  RH WIND       PRES   REMARKS
WILLISTON      FAIR      54  50  86 S7        29.38F
MINOT          CLOUDY    59  47  64 SE12      29.44R
MINOT AFB      NOT AVBL
BISMARCK       FAIR      59  44  57 SE15      29.46R
DICKINSON      LGT RAIN  51  47  86 N10       29.42R
GARRISON         N/A     54  47  77 SW8       29.46R
HETTINGER ARPT FAIR      52  46  80 N10       29.41R
JAMESTOWN      FAIR      51  44  77 SE20G28   29.51F
HAZEN          CLOUDY    54  52  94 CALM      29.46F
LINTON         FAIR      55  48  76 SE24G37   29.43S
MANDAN         CLOUDY    57  45  62 SE18      29.46R
STANLEY        CLOUDY    52  52 100 CALM      29.45F
TIOGA          CLOUDY    52  52 100 S10       29.41F
WATFORD CITY   CLOUDY    52  52 100 SE9       29.40F
$$

CITY           SKY/WX    TMP DP  RH WIND       PRES   REMARKS
GRAND FORKS    FAIR      53  44  71 SE10      29.61R
GRAND FORKS AF FAIR      53  43  68 SE13      29.60S
DEVILS LAKE    FAIR      53  44  71 SE18G24   29.55S
FARGO          FAIR      54  43  66 SE13      29.61F
CAVALIER       FAIR      55  41  58 SE14      29.59S
GRAFTON        FAIR      52  43  71 SE10      29.63S
GWINNER        CLEAR     50  45  81 MISG      29.57F
LANGDON        FAIR      52  43  71 SE20G26   29.57F
ROLLA          CLOUDY    54  43  66 SE22G31   29.50S
$$

CITY           SKY/WX    TMP DP  RH WIND       PRES   REMARKS
ABERDEEN       FAIR      53  43  68 SE17G26   29.53F
MOBRIDGE       FAIR      58  42  55 SE32G44   29.36F
BUFFALO          N/A     54  47  77 N28G35    29.33R
RAPID CITY     FAIR      62  51  67 CALM      29.33R
GLASGOW        FAIR      50  20  30 W9        29.36F
SIDNEY         FAIR      52  49  89 S8        29.40R
WOLF POINT     FAIR      46  24  42 SW5       29.36F
GLENDIVE       FAIR      51  44  77 SE5       29.42S
MILES CITY     FAIR      53  22  29 NW7       29.45R
BAKER          CLOUDY    51  46  83 E9        29.44S
$$

CITY           SKY/WX    TMP DP  RH WIND       PRES   REMARKS
BILLINGS       FAIR      50  20  30 N9        29.53R
GREAT FALLS    LGT RAIN  46  33  60 W28G35    29.56R
$$




USA.gov is the U.S. government's official web portal to all federal, state and local government web resources and services.